Погода в Волченском

Россия / Ростовская область     48°13′39″N   40°07′12″E
темп.,
°C
ветер,
м/с
пор.,
м/с
влажн.,
%
обл.,
%
осадки,
мм/ч
давл.,
гПа
погр.,
м
18 апреля, вс
вс1800:00+8зсз12703 0.0 102111
03:00+7в117399 0.0 102110
06:00+7вюв2274100 0.0 102023
09:00+11в3459100 0.0 1020548
12:00+13вюв334895 0.0 10191809
15:00+14всв224183 0.1 10181862
18:00+14всв334785 0.0 1017295
21:00+11ююз347497 0.1 1018132
19 апреля, пн
пн1900:00+10юз238192 0.0 101888
03:00+9з118047 0.0 101711
06:00+9ююз008180 0.0 101711
09:00+13юв126293 0.0 1017586
12:00+16всв224898 0.1 10151799
15:00+15юв2254100 0.1 1015978
18:00+14ююз1169100 0.1 101442
21:00+13юв2272100 0.1 101430
20 апреля, вт
вт2000:00+10юв2385100 0.0 101473
03:00+10в4108775 0.0 1011366
06:00+10в61290100 0.3 1008516
09:00+11в61396100 4.5 1007560
12:00+13вюв11178595 1.5 10031042
15:00+17юв11157699 1.8 10011085
18:00+15ююз81574100 7.6 1002863
21:00+12ююз9178315 7.6 1005916
21 апреля, ср
ср2100:00+10ююз101779100 0.0 10061223
03:00+9ююз101788100 0.0 10071070
06:00+9юз91489100 0.3 1010990
09:00+10зюз7118194 0.5 1014948
12:00+13зюз8106485 0.2 10161314
15:00+14юз7956100 0.3 10171915
18:00+13ююз57647 0.1 1018761
21:00+10ююз51070100 0.1 1021331
22 апреля, чт
чт2200:00+8юз36827 0.0 1022120
03:00+7зюз22821 0.0 102326
06:00+7зюз11795 0.0 102410
09:00+12ссв115916 0.0 1025483
12:00+16всв2247100 0.0 10241836
15:00+15в2248100 0.1 10241505
18:00+15юв2357100 0.1 1024148
21:00+12ююв1166100 0.1 102510